2023/09/04 00:00:00, 0.7,23.0
2023/09/04 00:10:00, 0.8,23.0
2023/09/04 00:20:00, 0.8,23.0
2023/09/04 00:30:00, 0.8,22.7
2023/09/04 00:40:00, 0.8,22.5
2023/09/04 00:50:00, 0.7,22.3
2023/09/04 01:00:00, 0.7,22.3
2023/09/04 01:10:00, 0.8,22.3
2023/09/04 01:20:00, 0.8,22.1
2023/09/04 01:30:00, 0.7,22.0
2023/09/04 01:40:00, 0.7,21.8
2023/09/04 01:50:00, 0.7,21.8
2023/09/04 02:00:00, 0.7,21.7
2023/09/04 02:10:00, 0.7,21.5
2023/09/04 02:20:00, 0.7,21.5
2023/09/04 02:30:00, 0.7,21.4
2023/09/04 02:40:00, 0.7,21.4
2023/09/04 02:50:00, 0.7,21.2
2023/09/04 03:00:00, 0.7,21.1
2023/09/04 03:10:00, 0.7,21.3
2023/09/04 03:20:00, 0.7,21.3
2023/09/04 03:30:00, 0.7,21.1
2023/09/04 03:40:00, 0.7,20.9
2023/09/04 03:50:00, 0.7,21.0
2023/09/04 04:00:00, 0.8,20.9
2023/09/04 04:10:00, 0.7,20.7
2023/09/04 04:20:00, 0.7,20.5
2023/09/04 04:30:00, 0.7,20.7
2023/09/04 04:40:00, 0.7,20.8
2023/09/04 04:50:00, 0.7,21.2
2023/09/04 05:00:00, 0.7,20.8
2023/09/04 05:10:00, 0.7,20.8
2023/09/04 05:20:00, 0.7,20.8
2023/09/04 05:30:00, 0.7,20.8
2023/09/04 05:40:00, 0.7,20.8
2023/09/04 05:50:00, 0.7,20.7
2023/09/04 06:00:00, 0.7,20.9
2023/09/04 06:10:00, 0.7,21.2
2023/09/04 06:20:00, 0.7,21.4
2023/09/04 06:30:00, 0.7,21.7
2023/09/04 06:40:00, 0.7,25.8
2023/09/04 06:50:00, 0.7,31.7
2023/09/04 07:00:00, 0.7,30.8
2023/09/04 07:10:00, 0.6,31.7
2023/09/04 07:20:00, 0.6,31.8
2023/09/04 07:30:00, 0.6,29.8
2023/09/04 07:40:00, 0.6,28.8
2023/09/04 07:50:00, 0.5,27.7
2023/09/04 08:00:00, 0.5,26.7
2023/09/04 08:10:00, 0.5,26.7
2023/09/04 08:20:00, 0.6,26.6
2023/09/04 08:30:00, 0.5,27.6
2023/09/04 08:40:00, 0.5,27.2
2023/09/04 08:50:00, 0.6,28.3
2023/09/04 09:00:00, 0.5,27.7
2023/09/04 09:10:00, 0.5,27.6
2023/09/04 09:20:00, 0.5,27.7
2023/09/04 09:30:00, 0.5,28.2
2023/09/04 09:40:00, 0.5,28.2
2023/09/04 09:50:00, 0.5,28.4
2023/09/04 10:00:00, 0.5,27.8
2023/09/04 10:10:00, 0.5,27.7
2023/09/04 10:20:00, 0.5,28.1
2023/09/04 10:30:00, 0.5,28.6
2023/09/04 10:40:00, 0.5,28.1
2023/09/04 10:50:00, 0.6,28.7
2023/09/04 11:00:00, 0.6,27.9
2023/09/04 11:10:00, 0.6,28.0
2023/09/04 11:20:00, 0.6,27.8
2023/09/04 11:30:00, 0.6,28.2
2023/09/04 11:40:00, 0.6,28.1
2023/09/04 11:50:00, 0.5,28.2
2023/09/04 12:00:00, 0.5,28.0
2023/09/04 12:10:00, 0.6,27.9
2023/09/04 12:20:00, 0.6,27.6
2023/09/04 12:30:00, 0.6,28.1
2023/09/04 12:40:00, 0.6,28.2
2023/09/04 12:50:00, 0.6,27.6
2023/09/04 13:00:00, 0.6,27.4
2023/09/04 13:10:00, 0.6,27.8
2023/09/04 13:20:00, 0.6,27.4
2023/09/04 13:30:00, 0.6,27.8
2023/09/04 13:40:00, 0.5,28.0
2023/09/04 13:50:00, 0.5,28.2
2023/09/04 14:00:00, 0.6,27.7
2023/09/04 14:10:00, 0.5,27.7
2023/09/04 14:20:00, 0.5,27.8
2023/09/04 14:30:00, 0.6,27.5
2023/09/04 14:40:00, 0.6,27.5
2023/09/04 14:50:00, 0.6,27.6
2023/09/04 15:00:00, 0.6,27.4
2023/09/04 15:10:00, 0.6,27.3
2023/09/04 15:20:00, 0.6,27.4
2023/09/04 15:30:00, 0.6,27.2
2023/09/04 15:40:00, 0.6,27.0
2023/09/04 15:50:00, 0.6,27.2
2023/09/04 16:00:00, 0.5,27.4
2023/09/04 16:10:00, 0.5,27.0
2023/09/04 16:20:00, 0.6,27.0
2023/09/04 16:30:00, 0.6,27.1
2023/09/04 16:40:00, 0.6,26.8
2023/09/04 16:50:00, 0.6,26.5
2023/09/04 17:00:00, 0.5,27.2
2023/09/04 17:10:00, 0.5,26.3
2023/09/04 17:20:00, 0.6,26.1
2023/09/04 17:30:00, 0.7,26.0
2023/09/04 17:40:00, 0.6,25.9
2023/09/04 17:50:00, 0.6,25.8
2023/09/04 18:00:00, 0.6,25.7
2023/09/04 18:10:00, 0.6,25.7
2023/09/04 18:20:00, 0.6,25.6
2023/09/04 18:30:00, 0.7,25.8
2023/09/04 18:40:00, 0.7,25.5
2023/09/04 18:50:00, 0.7,25.5
2023/09/04 19:00:00, 0.7,25.4
2023/09/04 19:10:00, 0.6,25.4
2023/09/04 19:20:00, 0.6,25.4
2023/09/04 19:30:00, 0.6,25.3
2023/09/04 19:40:00, 0.6,25.4
2023/09/04 19:50:00, 0.6,25.2
2023/09/04 20:00:00, 0.6,25.1
2023/09/04 20:10:00, 0.6,25.2
2023/09/04 20:20:00, 0.6,25.3
2023/09/04 20:30:00, 0.7,25.0
2023/09/04 20:40:00, 0.7,25.0
2023/09/04 20:50:00, 0.7,24.9
2023/09/04 21:00:00, 0.7,24.9
2023/09/04 21:10:00, 0.7,24.7
2023/09/04 21:20:00, 0.7,25.0
2023/09/04 21:30:00, 0.7,24.9
2023/09/04 21:40:00, 0.7,24.8
2023/09/04 21:50:00, 0.7,24.7
2023/09/04 22:00:00, 0.7,24.7
2023/09/04 22:10:00, 0.7,24.6
2023/09/04 22:20:00, 0.7,24.5
2023/09/04 22:30:00, 0.7,24.6
2023/09/04 22:40:00, 0.7,24.8
2023/09/04 22:50:00, 0.6,24.7
2023/09/04 23:00:00, 0.6,24.7
2023/09/04 23:10:00, 0.7,24.5
2023/09/04 23:20:00, 0.7,24.7
2023/09/04 23:30:00, 0.7,24.5
2023/09/04 23:40:00, 0.6,24.5
2023/09/04 23:50:00, 0.6,24.7
